KSU-Cubesat
1 47954U 21022Y 23096.56931823 .00011205 00000-0 64151-3 0 9992
2 47954 97.5058 355.4668 0017343 214.9547 145.0547 15.12671236111948
GRBAlpha
1 47959U 21022AD 23096.81509351 .00012756 00000-0 74182-3 0 9999
2 47959 97.5048 355.4931 0017574 216.6487 216.0593 15.12070704111069
Orbicraft-Zorkiy
1 47960U 21022AE 23096.86638588 .00014231 00000-0 81467-3 0 9995
2 47960 97.5080 355.8781 0017219 215.5651 208.8135 15.12615976111776
STECCO
1 47962U 21022AG 23096.79386748 .00023912 00000-0 11971-2 0 9995
2 47962 97.5052 357.6305 0012276 201.9120 228.6372 15.17326962111207
DO-111
1 47963U 21022AH 23096.18225962 .00111290 00000-0 28517-2 0 9990
2 47963 97.5061 1.9808 0010423 166.6548 193.4975 15.38891382111448
MO-110
1 47964U 21022AJ 23096.27237526 .00021522 00000-0 10577-2 0 9995
2 47964 97.5064 357.6180 0014821 199.9263 160.1394 15.17966662111150
FEES
1 48082U 21022AL 23096.27994660 .00035587 00000-0 15422-2 0 9996
2 48082 97.5059 358.2952 0010831 189.6348 170.4682 15.22241759110902
CSS
1 48274U 21035A 23095.88352392 .00047055 00000-0 48664-3 0 9997
2 48274 41.4739 236.7382 0003473 283.6975 216.3526 15.63905670110529
TUBIN
1 48900U 21059X 23096.83219278 .00013480 00000-0 66381-3 0 9991
2 48900 97.5866 230.0954 0010069 164.5730 348.9025 15.18054477 98346
IT-SPINS
1 49017U 21013G 23096.65347110 .00035353 00000-0 94735-3 0 9995
2 49017 51.5933 68.2809 0009711 63.8317 296.3664 15.37614011 98684
LEDSAT
1 49069U 21073D 23096.91700870 .00009496 00000-0 54031-3 0 9997
2 49069 97.4877 169.0498 0024432 10.4011 349.7721 15.12810296 90121
CUTE
1 49263U 21088D 23096.15807075 .00010479 00000-0 69761-3 0 9999
2 49263 97.5503 163.2541 0019907 146.2631 213.9868 15.07144261 83432
TeikyoSat 4
1 49396U 21102B 23096.91883008 .00001647 00000-0 13037-3 0 9999
2 49396 97.5185 151.1061 0013619 338.7573 21.3085 15.01888423 77079
Z-Sat
1 49399U 21102E 23096.92450890 .00003048 00000-0 22225-3 0 9998
2 49399 97.4923 152.2044 0020873 315.2694 44.6848 15.04292039 77179
KOSEN 1
1 49402U 21102H 23096.87853370 .00005011 00000-0 34769-3 0 9995
2 49402 97.4865 152.5559 0019431 304.0719 55.8664 15.05876171 77227
HO-113
1 50466U 21131B 23096.89230046 .00000963 00000-0 32765-3 0 9995
2 50466 98.5530 178.6622 0004084 10.8820 349.2455 14.38807565 67103
Tevel-3
1 50988U 22002E 23096.87687476 .00025145 00000-0 10953-2 0 9996
2 50988 97.4407 164.4548 0009512 124.5775 324.1897 15.22154550 67909
Tevel-8
1 50989U 22002F 23096.82767681 .00025294 00000-0 11037-2 0 9998
2 50989 97.4431 164.4588 0009623 122.7923 330.0563 15.22093020 67897
Tevel-5
1 50998U 22002Q 23096.86135169 .00026176 00000-0 11159-2 0 9997
2 50998 97.4396 164.7454 0010901 120.8370 349.2869 15.22865090 67927
Tevel-6
1 50999U 22002R 23096.85994459 .00026046 00000-0 11103-2 0 9997
2 50999 97.4395 164.7393 0010810 120.3756 349.7804 15.22869027 67929
Tevel-1
1 51013U 22002AF 23096.87930422 .00025186 00000-0 10982-2 0 9995
2 51013 97.4403 164.4099 0009508 124.2016 295.0981 15.22117059 67909
Grizu-263a
1 51025U 22002AT 23096.42231513 .00068252 00000-0 20161-2 0 9995
2 51025 97.4557 167.6662 0009602 128.9924 231.2176 15.34657339 68011
NO-116
1 51031U 22002AZ 23096.11570077 .00038481 00000-0 14272-2 0 9996
2 51031 97.4531 165.8282 0011413 126.0641 234.1657 15.27440548 67880
IRIS-A
1 51044U 22002BN 23096.12362728 .00012318 00000-0 61008-3 0 9994
2 51044 97.4420 162.7352 0009863 128.0921 232.1204 15.17872202 67728
Tevel-7
1 51062U 22002CG 23096.82943447 .00025323 00000-0 11046-2 0 9990
2 51062 97.4420 164.4350 0009629 123.6501 329.6945 15.22103866 67891
Tevel-4
1 51063U 22002CH 23096.83673080 .00025286 00000-0 11043-2 0 9990
2 51063 97.4419 164.4315 0009540 122.2846 349.4838 15.22065067 67891
Tevel-2
1 51069U 22002CP 23096.87871480 .00025186 00000-0 10970-2 0 9991
2 51069 97.4403 164.4301 0009496 124.5764 324.0342 15.22155793 67906
DELFI-PQ
1 51074U 22002CU 23096.14129941 .00043171 00000-0 14768-2 0 9998
2 51074 97.4658 167.7750 0011917 151.2313 208.9587 15.30056569 67963
SO-115
1 51080U 22002DA 23096.63440760 .00023148 00000-0 91888-3 0 9995
2 51080 97.4668 167.3508 0012672 150.3358 209.8601 15.25276368 67979
SO-114
1 51081U 22002DB 23096.16985124 .00026363 00000-0 10426-2 0 9992
2 51081 97.4669 166.8517 0012835 151.6836 208.5102 15.25372159 67901
OreSat0
1 52017U 22026K 23096.45777830 .00019373 00000-0 83875-3 0 9995
2 52017 97.5109 98.7642 0022303 341.7151 18.3281 15.22230245 58626
Planetum 1
1 52738U 22057G 23096.75486801 .00016356 00000-0 80390-3 0 9994
2 52738 97.5293 212.8922 0007115 229.8447 130.2164 15.18096897 47819
Foresail-1
1 52766U 22057AL 23096.80037559 .00014484 00000-0 71596-3 0 9991
2 52766 97.5392 213.7836 0012349 213.3453 298.3214 15.17880615 47847
SNUGLITE 2
1 52899U 22065F 23096.35663755 .00001810 00000-0 39411-3 0 9999
2 52899 98.0569 243.2491 0009195 84.0707 276.1541 14.59081650 40387
CTIM
1 52950U 22074G 23096.25683562 .00054575 00000-0 14947-2 0 9996
2 52950 45.0012 39.4790 0010127 130.7083 229.4695 15.36549989 42518
IO-117
1 53106U 22080B 23088.05176028 -.00000003 00000-0 00000-0 0 9991
2 53106 70.1795 347.5677 0008286 204.3079 155.7190 6.42557135 16603
SelfieSat
1 53951U 22057BC 23096.32591584 .00021824 00000-0 10381-2 0 9998
2 53951 97.5343 212.9023 0009493 226.3016 133.7433 15.19157515 47768
FO-118
1 54684U 22167C 23096.88461427 .00017381 00000-0 10083-2 0 9999
2 54684 97.5491 235.0898 0014060 217.7428 294.5607 15.12136907 17894
